Wind_Speed
7 5 3 4 5 6 7 10 11 12 11 12 14 15 15 15 15 16 16 16 18 19 19 20 20 21 21 22 23 25 26 26 26 27 26 27 28 28 28 28 28 29 29 30
7 6 5 5 7 7 9 11 11 11 11 13 15 15 15 16 17 17 16 16 19 20 20 22 22 21 22 22 24 25 25 26 26 26 26 27 27 27 28 28 28 29 30 29
5 5 6 7 8 8 10 11 11 11 11 13 14 14 14 14 16 19 18 18 17 19 20 21 22 22 23 23 24 25 25 26 26 26 26 27 27 28 28 29 29 30 29 28
7 6 8 9 10 10 11 10 10 10 11 12 12 15 14 15 16 19 19 19 18 19 19 21 22 23 23 23 24 24 25 25 25 26 27 27 27 28 28 29 29 29 28 29
7 9 9 10 11 11 10 9 9 10 10 12 12 14 15 17 18 20 20 19 18 20 21 21 21 22 22 23 24 25 24 23 24 25 26 26 26 27 28 28 28 28 28 28
7 9 10 10 10 11 10 10 10 10 10 14 13 13 16 18 20 22 24 20 18 20 20 20 20 22 23 23 23 23 22 23 24 25 25 25 26 27 28 28 27 27 27 28
9 10 11 11 11 11 11 12 12 12 13 15 13 14 20 20 21 24 23 20 20 18 19 20 22 24 24 23 23 23 24 24 24 24 24 25 25 26 26 27 27 27 27 27
10 11 10 11 11 11 11 11 11 13 14 15 14 16 20 20 23 23 22 22 21 21 20 20 21 22 23 23 23 24 23 23 23 24 24 24 25 25 26 26 26 27 26 25
12 11 12 12 11 11 11 11 12 14 15 15 14 17 20 21 22 24 23 21 20 21 21 21 22 22 23 23 23 24 23 24 24 24 24 24 25 25 26 25 25 25 25 24
14 14 13 13 12 12 12 13 13 13 15 16 15 16 21 23 24 25 24 22 21 21 21 20 21 22 23 24 24 24 24 24 24 25 24 24 25 25 24 24 23 24 24 23
15 14 13 13 13 12 13 14 15 16 16 16 18 18 21 24 24 24 24 24 23 23 24 22 23 23 24 24 24 24 24 24 24 24 24 24 24 24 23 23 23 23 23 23
15 16 14 13 13 13 15 15 16 17 17 17 19 19 21 24 23 23 23 24 24 23 22 23 24 24 24 24 24 23 24 24 24 24 24 23 23 23 23 22 22 22 22 21
15 16 16 15 14 15 16 15 16 18 20 20 19 19 21 23 22 22 23 24 24 23 23 23 23 24 24 25 25 24 24 24 24 24 24 23 23 21 21 21 21 21 21 21
16 16 16 16 16 16 17 18 18 19 20 21 21 20 22 22 24 24 24 23 22 22 23 23 23 23 23 24 24 23 23 24 24 24 23 22 21 20 20 20 21 21 21 21
17 18 17 17 17 17 17 18 19 19 20 22 22 22 22 22 24 25 24 24 23 22 23 24 23 23 23 24 24 24 23 23 24 23 21 20 19 19 19 19 20 20 20 19
20 20 19 18 19 19 19 19 20 21 21 22 22 22 22 23 24 24 24 25 24 24 24 24 24 23 24 24 24 24 23 23 22 21 19 20 19 19 19 19 20 20 20 19
20 21 20 20 19 20 21 21 21 22 23 23 23 23 23 24 25 24 24 24 24 25 24 24 23 23 23 24 24 23 22 22 20 20 19 18 18 18 18 18 19 19 18 17
21 22 22 21 20 20 22 22 21 21 22 23 23 23 23 24 24 24 25 24 24 25 24 23 23 22 23 22 22 22 21 21 19 18 17 17 17 17 17 17 17 17 17 17
23 24 23 22 22 23 23 23 21 22 23 24 24 24 23 23 23 23 23 23 24 23 22 22 23 22 22 22 22 21 20 19 18 17 17 17 16 16 17 16 15 16 16 16
24 24 24 24 24 24 25 23 24 25 25 25 24 25 25 24 23 23 23 22 22 22 22 22 22 22 22 21 21 21 20 19 18 17 16 16 15 15 15 15 14 15 16 16
24 24 25 24 24 25 25 25 24 25 25 25 25 26 26 25 24 24 23 22 22 22 22 22 21 22 22 21 21 20 19 18 17 16 15 14 14 14 14 14 14 14 15 15
25 25 25 24 24 25 25 25 25 25 25 25 25 25 25 25 24 23 22 22 21 22 21 21 21 21 20 20 20 19 17 17 15 14 14 13 13 13 13 13 13 14 13 13
25 26 26 25 25 25 26 25 25 25 24 24 23 23 23 23 23 22 22 22 22 21 20 20 20 19 19 18 17 17 16 14 14 12 12 12 12 12 11 11 12 12 13 13
25 26 26 26 25 25 25 24 24 23 23 22 22 22 22 22 22 22 22 21 20 19 19 19 18 17 17 16 15 14 14 13 12 11 11 11 10 10 9 9 10 11 12 13
26 25 25 26 26 25 23 23 23 22 21 20 20 20 21 22 22 21 21 20 19 18 18 17 16 15 15 14 13 13 13 12 10 9 9 9 8 8 8 8 9 10 11 12
26 25 25 26 25 24 23 22 21 21 20 20 20 20 21 21 21 20 19 17 17 17 15 15 14 13 12 12 12 11 11 9 8 8 8 7 7 6 7 8 9 10 11 13
Wind_Direction
36 20 341 298 281 266 262 263 262 262 265 270 272 270 275 279 277 280 282 282 285 287 290 290 292 294 293 294 296 297 299 300 301 303 303 302 302 303 303 303 304 302 302 302
7 352 329 308 290 277 274 271 261 262 262 270 275 275 274 276 283 283 280 283 292 291 291 289 291 294 295 296 297 296 297 299 300 300 300 301 301 302 303 302 304 305 304 303
326 307 288 284 279 275 267 266 267 267 274 275 278 280 279 278 285 291 287 286 292 292 292 291 294 296 297 296 297 297 295 299 300 300 300 303 302 303 302 304 305 305 305 304
317 298 288 288 280 278 272 272 272 276 280 281 282 284 286 286 288 291 289 290 292 290 292 293 295 299 297 296 297 298 298 299 300 302 301 303 304 305 306 306 305 306 305 304
306 295 290 288 288 285 281 277 279 283 285 281 284 280 282 285 286 290 292 291 289 288 288 291 296 300 301 300 301 301 299 301 303 304 305 305 306 306 308 308 307 307 306 305
307 299 293 294 294 292 288 290 292 287 279 274 278 284 282 282 288 292 295 292 291 292 295 297 301 303 301 299 299 301 301 302 304 305 305 306 307 307 308 309 309 308 308 306
317 311 303 296 299 297 291 293 289 279 278 277 276 280 278 280 286 292 294 292 298 295 296 299 299 301 300 298 298 300 301 302 303 305 305 304 308 309 308 308 309 310 308 307
315 306 300 296 296 295 292 292 294 285 282 281 277 277 280 284 289 292 293 294 295 298 300 296 298 300 300 299 298 300 301 304 306 307 307 306 308 310 308 308 310 311 309 307
307 304 305 299 297 295 291 288 289 286 283 279 276 280 279 280 285 287 289 293 295 296 296 298 298 299 300 301 299 300 300 303 305 306 304 303 306 308 309 310 311 312 311 308
306 308 308 310 304 300 292 287 288 282 282 285 280 278 278 286 290 288 291 293 293 292 296 297 295 296 299 299 300 301 301 301 303 303 302 302 303 306 308 310 311 313 313 313
300 304 306 304 299 294 287 284 286 285 282 282 285 283 282 286 288 290 290 291 294 296 298 297 295 296 296 296 296 299 299 298 301 303 304 302 302 305 308 309 309 310 313 316
304 303 302 299 300 290 285 290 291 290 287 284 282 285 286 286 288 289 290 292 295 298 300 299 298 297 295 296 297 297 300 302 302 303 304 304 303 305 307 309 309 309 311 313
307 307 309 305 301 300 298 296 292 292 289 290 284 286 286 286 289 289 292 294 296 298 300 302 303 300 298 297 298 297 298 300 301 301 302 303 303 305 306 309 309 311 313 314
310 308 307 308 307 303 302 301 299 298 296 297 292 286 282 283 288 289 290 294 299 300 301 303 303 303 303 303 303 300 298 299 299 299 299 301 302 305 308 311 312 312 314 313
311 310 309 307 308 308 304 302 299 299 296 295 297 293 289 288 290 291 292 293 297 300 302 303 301 301 302 304 305 306 304 301 299 299 299 300 302 303 305 309 314 314 313 314
312 312 308 308 308 309 305 302 300 299 296 294 297 297 291 290 293 293 294 295 296 299 300 301 301 300 300 302 305 306 306 304 300 298 299 300 301 301 302 305 309 317 314 315
311 312 309 308 306 305 302 304 303 302 299 296 295 294 292 293 293 294 294 296 296 297 298 299 299 300 302 303 304 305 305 304 301 298 298 301 304 304 304 305 309 314 316 318
310 310 310 309 307 302 302 304 303 303 298 299 299 294 295 297 295 295 295 296 296 296 298 298 299 301 303 305 304 305 305 305 302 299 298 301 304 304 307 309 310 312 318 321
309 310 310 310 306 303 303 305 303 301 298 300 300 299 299 299 297 297 296 298 298 298 298 300 301 303 305 307 305 305 306 304 301 301 300 303 303 303 306 309 313 315 321 324
309 311 310 310 306 304 304 307 304 301 297 300 299 298 300 300 298 296 295 296 297 298 298 300 303 304 306 307 307 306 305 303 301 301 300 304 305 303 306 310 313 320 323 325
308 308 308 308 306 302 305 302 299 298 297 297 296 296 298 298 297 296 294 294 294 296 297 299 301 303 305 305 306 307 306 305 305 303 302 308 308 307 307 310 313 318 322 326
305 305 305 304 303 300 300 297 295 295 295 295 294 294 295 296 296 296 295 293 293 295 296 297 299 301 303 304 304 307 309 308 307 306 305 309 311 311 310 309 312 320 323 325
304 304 303 302 300 298 297 297 296 295 295 295 295 295 295 296 295 294 293 292 293 294 295 297 299 301 301 303 304 309 313 312 308 307 307 308 313 313 311 315 319 325 329 329
303 303 303 302 301 298 297 296 296 296 298 299 299 297 295 298 299 296 294 292 292 293 295 297 298 300 301 302 305 310 312 311 308 306 308 310 313 313 312 325 332 333 336 338
302 302 302 301 302 299 297 295 296 297 299 297 298 299 297 299 300 299 297 293 291 294 296 297 297 296 300 304 307 311 312 308 308 309 312 316 316 314 318 329 336 340 342 344
301 302 301 302 303 301 299 298 299 298 296 295 295 296 296 297 297 298 297 294 292 295 295 296 296 297 300 305 307 311 315 310 309 315 327 332 326 324 328 337 340 343 345 345
Height
5850 5851 5852 5853 5853 5853 5854 5854 5854 5855 5854 5854 5853 5853 5853 5852 5851 5849 5849 5849 5848 5847 5846 5845 5843 5843 5841 5840 5838 5837 5835 5833 5831 5828 5826 5825 5822 5820 5818 5815 5813 5810 5808 5805
5852 5853 5854 5853 5853 5853 5853 5853 5853 5852 5852 5852 5851 5850 5850 5848 5848 5846 5845 5844 5845 5844 5842 5841 5839 5838 5836 5835 5834 5832 5830 5828 5826 5824 5822 5820 5817 5815 5812 5809 5806 5804 5802 5800
5854 5855 5854 5853 5853 5851 5851 5851 5851 5850 5849 5850 5849 5847 5846 5845 5844 5843 5842 5840 5840 5839 5838 5836 5835 5834 5832 5830 5829 5827 5825 5823 5821 5819 5817 5815 5812 5809 5807 5804 5801 5799 5796 5794
5853 5853 5852 5851 5851 5849 5848 5849 5848 5847 5847 5847 5848 5846 5844 5841 5840 5839 5838 5836 5836 5835 5834 5832 5831 5829 5827 5825 5824 5821 5820 5818 5817 5814 5812 5810 5807 5804 5802 5799 5796 5793 5791 5788
5852 5851 5850 5849 5848 5847 5847 5846 5846 5845 5844 5845 5846 5844 5843 5839 5838 5837 5835 5833 5831 5830 5828 5826 5826 5824 5822 5821 5819 5817 5815 5813 5811 5809 5807 5805 5802 5799 5796 5793 5790 5787 5785 5782
5850 5849 5848 5847 5846 5845 5844 5844 5843 5842 5843 5843 5843 5842 5840 5836 5835 5833 5832 5829 5827 5825 5824 5823 5821 5820 5818 5816 5814 5812 5810 5809 5807 5804 5802 5800 5797 5794 5791 5788 5785 5782 5779 5776
5848 5847 5846 5845 5844 5844 5843 5842 5841 5840 5839 5839 5840 5838 5835 5832 5831 5829 5827 5826 5822 5822 5821 5820 5818 5816 5814 5812 5810 5808 5806 5804 5802 5800 5797 5794 5791 5789 5786 5783 5780 5777 5774 5771
5846 5845 5843 5842 5842 5841 5840 5839 5839 5838 5837 5837 5836 5834 5833 5829 5827 5825 5823 5822 5819 5818 5817 5816 5814 5812 5809 5807 5805 5804 5802 5800 5798 5795 5792 5790 5787 5784 5782 5779 5775 5772 5768 5765
5842 5842 5841 5840 5839 5838 5837 5836 5836 5835 5833 5833 5833 5831 5828 5825 5823 5822 5819 5818 5817 5815 5814 5812 5810 5808 5805 5803 5801 5799 5798 5796 5793 5791 5788 5786 5783 5780 5777 5774 5771 5767 5763 5760
5840 5839 5838 5837 5836 5836 5835 5833 5832 5831 5830 5828 5828 5827 5823 5819 5819 5817 5815 5814 5812 5810 5809 5807 5805 5804 5802 5799 5797 5795 5793 5791 5789 5786 5784 5781 5779 5776 5773 5770 5766 5763 5759 5756
5837 5836 5835 5834 5832 5831 5830 5829 5827 5826 5825 5824 5822 5823 5818 5815 5814 5812 5810 5808 5807 5805 5804 5803 5801 5799 5797 5795 5792 5790 5788 5786 5784 5782 5779 5776 5774 5771 5769 5765 5762 5759 5756 5752
5835 5833 5832 5831 5829 5828 5826 5825 5824 5822 5821 5819 5818 5818 5813 5810 5809 5807 5805 5803 5802 5801 5799 5797 5795 5793 5792 5789 5787 5785 5782 5780 5778 5776 5774 5772 5769 5767 5764 5761 5758 5754 5751 5748
5832 5830 5828 5827 5828 5825 5823 5822 5820 5818 5816 5814 5813 5814 5808 5805 5803 5802 5800 5798 5797 5796 5794 5792 5790 5788 5786 5784 5782 5779 5777 5775 5773 5771 5769 5767 5765 5762 5759 5756 5753 5750 5747 5744
5829 5827 5826 5824 5822 5821 5819 5818 5816 5814 5812 5809 5808 5806 5803 5800 5797 5796 5795 5793 5792 5791 5790 5788 5786 5783 5781 5778 5776 5773 5771 5769 5767 5765 5764 5762 5760 5757 5755 5752 5749 5746 5743 5740
5826 5824 5822 5820 5818 5816 5814 5813 5812 5810 5807 5805 5803 5800 5797 5795 5793 5791 5789 5788 5787 5786 5785 5783 5781 5778 5776 5774 5772 5769 5766 5764 5762 5760 5758 5756 5755 5753 5750 5748 5745 5742 5740 5737
5821 5820 5818 5816 5815 5812 5810 5809 5807 5805 5802 5800 5797 5794 5791 5790 5788 5786 5785 5784 5782 5781 5779 5777 5775 5773 5771 5769 5766 5764 5761 5758 5756 5754 5753 5751 5749 5748 5746 5743 5741 5739 5736 5733
5818 5815 5813 5811 5810 5807 5805 5804 5802 5799 5796 5795 5792 5789 5786 5785 5784 5782 5780 5779 5777 5775 5774 5771 5769 5767 5765 5763 5760 5758 5755 5753 5751 5749 5747 5746 5744 5743 5741 5739 5737 5735 5732 5730
5814 5811 5809 5806 5805 5803 5803 5798 5796 5794 5791 5789 5786 5784 5782 5780 5778 5777 5775 5773 5772 5769 5768 5766 5764 5762 5760 5757 5755 5752 5749 5747 5745 5743 5742 5741 5740 5739 5737 5735 5733 5731 5729 5727
5809 5806 5804 5802 5799 5797 5797 5793 5790 5788 5785 5783 5780 5778 5777 5775 5773 5771 5769 5768 5766 5764 5762 5760 5759 5756 5754 5752 5749 5747 5744 5742 5740 5739 5738 5737 5735 5734 5733 5731 5729 5728 5726 5723
5804 5802 5800 5797 5794 5792 5790 5787 5784 5783 5779 5777 5775 5773 5771 5770 5768 5767 5764 5762 5761 5759 5757 5755 5754 5751 5749 5747 5744 5742 5739 5737 5736 5734 5733 5732 5731 5730 5729 5727 5725 5724 5722 5720
5800 5797 5794 5791 5789 5786 5784 5781 5780 5779 5776 5772 5769 5767 5766 5764 5763 5761 5758 5757 5755 5754 5752 5750 5749 5746 5744 5742 5740 5737 5734 5733 5731 5730 5729 5728 5727 5726 5725 5723 5722 5720 5719 5717
5795 5793 5790 5787 5784 5783 5778 5775 5774 5772 5769 5766 5764 5762 5760 5758 5756 5754 5753 5751 5750 5748 5747 5745 5743 5741 5739 5737 5735 5733 5731 5729 5727 5726 5726 5725 5724 5723 5721 5720 5718 5717 5715 5714
5789 5787 5783 5781 5780 5776 5772 5769 5767 5764 5762 5760 5758 5756 5754 5752 5751 5749 5747 5745 5744 5743 5741 5740 5738 5736 5734 5733 5731 5729 5727 5726 5724 5723 5723 5722 5721 5719 5718 5717 5715 5714 5713 5711
5784 5781 5777 5774 5772 5769 5766 5764 5761 5758 5756 5754 5752 5750 5749 5747 5745 5743 5741 5739 5738 5737 5736 5735 5733 5732 5730 5729 5727 5726 5724 5722 5721 5720 5719 5719 5718 5717 5715 5714 5713 5712 5710 5708
5778 5775 5771 5769 5766 5763 5761 5758 5756 5753 5750 5749 5747 5745 5743 5741 5739 5737 5736 5734 5733 5732 5731 5729 5728 5727 5726 5725 5724 5723 5721 5720 5719 5718 5717 5716 5715 5714 5713 5712 5711 5710 5708 5706
5771 5768 5766 5763 5761 5758 5756 5753 5750 5748 5746 5744 5742 5741 5739 5736 5734 5733 5731 5729 5728 5727 5726 5725 5724 5723 5723 5722 5721 5720 5719 5718 5717 5716 5715 5714 5713 5713 5712 5711 5709 5708 5706 5704